When you browse on this site, cookies collect data to enhance your experience and personalize the content and advertising you see.
Visit our Privacy Policy to learn more. By continuing to use the site, you agree to this use of cookies and data.
  • In Portugal
  • List of Countries
  • For 7 days
  • Water Temperature
  • Satellite Maps
  • Weather Map
  • Weather Widgets
  • user-avatar
    Login

    Hourly Weather Mingachevir

    Today, 23 May, Thursday

    Time Temperature Precipitation Wind Pressure Humidity
    00:00 +20°C° 0 mm 3 mps 752 mmHg 53%
    01:00 +20°C° 0 mm 3 mps 752 mmHg 54%
    02:00 +20°C° 0 mm 3 mps 752 mmHg 54%
    03:00 +19°C° 0 mm 4 mps 752 mmHg 54%
    04:00 +20°C° 0 mm 3 mps 752 mmHg 56%
    05:00 +20°C° 0 mm 3 mps 752 mmHg 57%
    06:00 +20°C° 0 mm 3 mps 752 mmHg 59%
    07:00 +22°C° 0 mm 3 mps 751 mmHg 54%
    08:00 +25°C° 0 mm 3 mps 751 mmHg 50%
    09:00 +26°C° 0 mm 3 mps 751 mmHg 45%
    10:00 +27°C° 0 mm 3 mps 750 mmHg 42%
    11:00 +28°C° 0 mm 2 mps 750 mmHg 39%
    12:00 +29°C° 0 mm 2 mps 750 mmHg 37%
    13:00 +29°C° 0.1 mm 2 mps 749 mmHg 40%
    14:00 +28°C° 0.1 mm 2 mps 749 mmHg 43%
    15:00 +28°C° 0.1 mm 2 mps 749 mmHg 46%
    16:00 +28°C° 0.1 mm 2 mps 749 mmHg 47%
    17:00 +28°C° 0.1 mm 2 mps 749 mmHg 48%
    18:00 +27°C° 0.1 mm 2 mps 749 mmHg 50%
    19:00 +26°C° 0.2 mm 2 mps 749 mmHg 54%
    20:00 +25°C° 0.2 mm 2 mps 750 mmHg 58%
    21:00 +24°C° 0.2 mm 2 mps 750 mmHg 63%
    22:00 +23°C° 0 mm 2 mps 751 mmHg 62%
    23:00 +23°C° 0 mm 2 mps 751 mmHg 61%

    Tomorrow, 24 May, Friday

    Time Temperature Precipitation Wind Pressure Humidity
    00:00 +22°C° 0 mm 1 mps 751 mmHg 60%
    01:00 +22°C° 0 mm 1 mps 751 mmHg 60%
    02:00 +21°C° 0 mm 1 mps 751 mmHg 61%
    03:00 +21°C° 0 mm 1 mps 751 mmHg 61%
    04:00 +21°C° 0 mm 1 mps 751 mmHg 58%
    05:00 +22°C° 0 mm 1 mps 752 mmHg 55%
    06:00 +22°C° 0 mm 1 mps 752 mmHg 53%
    07:00 +23°C° 0 mm 1 mps 752 mmHg 46%
    08:00 +25°C° 0 mm 2 mps 752 mmHg 40%
    09:00 +26°C° 0 mm 2 mps 752 mmHg 33%
    10:00 +27°C° 0 mm 2 mps 751 mmHg 33%
    11:00 +28°C° 0 mm 1 mps 751 mmHg 32%
    12:00 +29°C° 0 mm 1 mps 751 mmHg 32%
    13:00 +30°C° 0.1 mm 1 mps 750 mmHg 33%
    14:00 +30°C° 0.1 mm 1 mps 750 mmHg 33%
    15:00 +30°C° 0.1 mm 1 mps 750 mmHg 34%
    16:00 +30°C° 0.1 mm 2 mps 750 mmHg 39%
    17:00 +29°C° 0.1 mm 2 mps 750 mmHg 43%
    18:00 +28°C° 0.1 mm 2 mps 750 mmHg 48%
    19:00 +27°C° 1.8 mm 2 mps 751 mmHg 56%
    20:00 +25°C° 1.8 mm 2 mps 752 mmHg 65%
    21:00 +24°C° 1.8 mm 2 mps 753 mmHg 73%
    22:00 +23°C° 0 mm 2 mps 753 mmHg 76%
    23:00 +22°C° 0 mm 3 mps 753 mmHg 79%

    Day after tomorrow, 25 May, Saturday

    Time Temperature Precipitation Wind Pressure Humidity
    00:00 +21°C° 0 mm 4 mps 753 mmHg 83%
    01:00 +20°C° 0 mm 3 mps 753 mmHg 84%
    02:00 +20°C° 0 mm 2 mps 753 mmHg 85%
    03:00 +21°C° 0 mm 1 mps 753 mmHg 86%
    04:00 +21°C° 0 mm 1 mps 752 mmHg 83%
    05:00 +21°C° 0 mm 1 mps 752 mmHg 81%
    06:00 +22°C° 0 mm 1 mps 752 mmHg 78%
    07:00 +23°C° 0 mm 1 mps 752 mmHg 71%
    08:00 +25°C° 0 mm 2 mps 752 mmHg 65%
    09:00 +26°C° 0 mm 2 mps 752 mmHg 58%
    10:00 +28°C° 0 mm 2 mps 751 mmHg 53%
    11:00 +29°C° 0 mm 1 mps 751 mmHg 47%
    12:00 +30°C° 0 mm 1 mps 750 mmHg 42%
    13:00 +31°C° 0.1 mm 1 mps 750 mmHg 41%
    14:00 +32°C° 0.1 mm 1 mps 749 mmHg 40%
    15:00 +32°C° 0.1 mm 1 mps 748 mmHg 39%
    16:00 +32°C° 0.2 mm 2 mps 749 mmHg 45%
    17:00 +31°C° 0.2 mm 3 mps 749 mmHg 50%
    18:00 +30°C° 0.2 mm 3 mps 749 mmHg 55%
    19:00 +29°C° 0.1 mm 2 mps 749 mmHg 59%
    20:00 +28°C° 0.1 mm 2 mps 749 mmHg 63%
    21:00 +26°C° 0.1 mm 1 mps 749 mmHg 66%
    22:00 +26°C° 0 mm 1 mps 750 mmHg 66%
    23:00 +26°C° 0 mm 2 mps 750 mmHg 67%

    26 May, Sunday

    Time Temperature Precipitation Wind Pressure Humidity
    00:00 +26°C° 0 mm 2 mps 750 mmHg 67%
    01:00 +25°C° 0 mm 3 mps 750 mmHg 67%
    02:00 +25°C° 0 mm 3 mps 749 mmHg 68%
    03:00 +24°C° 0 mm 3 mps 749 mmHg 68%
    04:00 +23°C° 0 mm 4 mps 749 mmHg 63%
    05:00 +25°C° 0 mm 5 mps 750 mmHg 58%
    06:00 +25°C° 0 mm 5 mps 750 mmHg 54%
    07:00 +26°C° 0.1 mm 5 mps 750 mmHg 49%
    08:00 +28°C° 0.1 mm 6 mps 750 mmHg 44%
    09:00 +30°C° 0.1 mm 6 mps 749 mmHg 39%
    10:00 +30°C° 0.6 mm 5 mps 749 mmHg 39%
    11:00 +32°C° 0.6 mm 5 mps 749 mmHg 38%
    12:00 +33°C° 0.6 mm 5 mps 749 mmHg 38%
    13:00 +33°C° 1.2 mm 5 mps 748 mmHg 39%
    14:00 +33°C° 1.2 mm 4 mps 748 mmHg 41%
    15:00 +33°C° 1.2 mm 4 mps 748 mmHg 43%
    16:00 +31°C° 1.2 mm 3 mps 748 mmHg 47%
    17:00 +30°C° 1.2 mm 3 mps 749 mmHg 52%
    18:00 +29°C° 1.2 mm 2 mps 749 mmHg 57%
    19:00 +28°C° 0.2 mm 2 mps 750 mmHg 61%
    20:00 +26°C° 0.2 mm 2 mps 750 mmHg 65%
    21:00 +25°C° 0.2 mm 2 mps 751 mmHg 70%
    22:00 +24°C° 0.7 mm 3 mps 751 mmHg 72%
    23:00 +24°C° 0.7 mm 3 mps 751 mmHg 74%

    27 May, Monday

    Time Temperature Precipitation Wind Pressure Humidity
    00:00 +22°C° 0.7 mm 4 mps 751 mmHg 76%
    01:00 +22°C° 0.3 mm 4 mps 752 mmHg 74%
    02:00 +22°C° 0.3 mm 4 mps 752 mmHg 73%
    03:00 +22°C° 0.3 mm 4 mps 752 mmHg 71%
    04:00 +22°C° 0 mm 4 mps 752 mmHg 69%
    05:00 +22°C° 0 mm 4 mps 753 mmHg 67%
    06:00 +23°C° 0 mm 4 mps 753 mmHg 66%
    07:00 +25°C° 0 mm 5 mps 753 mmHg 59%
    08:00 +27°C° 0 mm 5 mps 753 mmHg 53%
    09:00 +28°C° 0 mm 6 mps 753 mmHg 47%
    10:00 +30°C° 0 mm 5 mps 753 mmHg 41%
    11:00 +32°C° 0 mm 5 mps 753 mmHg 36%
    12:00 +33°C° 0 mm 4 mps 752 mmHg 31%
    13:00 +33°C° 0 mm 3 mps 752 mmHg 29%
    14:00 +34°C° 0 mm 2 mps 752 mmHg 28%
    15:00 +33°C° 0 mm 1 mps 752 mmHg 26%
    16:00 +32°C° 0.1 mm 1 mps 753 mmHg 30%
    17:00 +32°C° 0.1 mm 1 mps 753 mmHg 33%
    18:00 +31°C° 0.1 mm 1 mps 753 mmHg 36%
    19:00 +29°C° 0 mm 2 mps 754 mmHg 40%
    20:00 +28°C° 0 mm 4 mps 755 mmHg 44%
    21:00 +26°C° 0 mm 5 mps 756 mmHg 49%
    22:00 +25°C° 0 mm 4 mps 756 mmHg 51%
    23:00 +25°C° 0 mm 3 mps 756 mmHg 54%

    28 May, Tuesday

    Time Temperature Precipitation Wind Pressure Humidity
    00:00 +24°C° 0 mm 2 mps 756 mmHg 56%
    01:00 +23°C° 0 mm 2 mps 756 mmHg 58%
    02:00 +23°C° 0 mm 1 mps 757 mmHg 59%
    03:00 +22°C° 0 mm 1 mps 757 mmHg 60%
    04:00 +23°C° 0 mm 1 mps 757 mmHg 59%
    05:00 +21°C° 0 mm 0 mps 757 mmHg 57%
    06:00 +22°C° 0 mm 0 mps 757 mmHg 55%
    07:00 +25°C° 0 mm 1 mps 757 mmHg 51%
    08:00 +27°C° 0 mm 2 mps 757 mmHg 47%
    09:00 +28°C° 0 mm 2 mps 757 mmHg 43%
    10:00 +29°C° 0 mm 3 mps 757 mmHg 40%
    11:00 +31°C° 0 mm 3 mps 757 mmHg 38%
    12:00 +33°C° 0 mm 4 mps 756 mmHg 35%
    13:00 +33°C° 0 mm 4 mps 756 mmHg 34%
    14:00 +34°C° 0 mm 4 mps 755 mmHg 34%
    15:00 +34°C° 0 mm 4 mps 755 mmHg 33%
    16:00 +34°C° 0 mm 4 mps 755 mmHg 35%
    17:00 +33°C° 0 mm 3 mps 755 mmHg 37%
    18:00 +33°C° 0 mm 3 mps 755 mmHg 39%
    19:00 +30°C° 0 mm 3 mps 756 mmHg 42%
    20:00 +28°C° 0 mm 4 mps 756 mmHg 44%
    21:00 +27°C° 0 mm 4 mps 757 mmHg 46%
    22:00 +26°C° 0 mm 3 mps 757 mmHg 48%
    23:00 +25°C° 0 mm 3 mps 757 mmHg 50%
    Show more